Location: ???? ?????
(30.0052°N, 31.2891°E)
Time: 08:12:54
(UTC+00:00)

SEDSat Delta rocket - Pass Details

Date: 12 October 2022
Orbit: 532 x 995 km, 31.4° (Epoch: 04 December)

Event Time Altitude Azimuth Distance (km) Brightness Sun altitude
Rises 16:35:31 0° 270° (W) 3,069 8.5 -15.5°
Reaches altitude 10° 16:38:25 10° 253° (WSW) 2,239 7.1 -16.1°
Maximum altitude 16:42:10 20° 208° (SSW) 1,781 5.7 -16.9°
Drops below altitude 10° 16:46:15 10° 164° (SSE) 2,464 5.9 -17.8°
Enters shadow 16:48:15 - 153° (SSE) 3,045 6.3 -18.2°
